Location: Unspecified
(42.3650°N, 71.1030°W)
Time: 11:10:04
(UTC+00:00)

BlueWalker 3 - Visible Passes

Search period start: 21 May 2024 00:00
Search period end: 31 May 2024 00:00
Orbit: 482 x 494 km, 53.2° (Epoch: 20 May)

Date Brightness Start Highest point End Pass type
(mag) Time Alt. Az. Time Alt. Az. Time Alt. Az.
28 May 4.4 08:37:35 10° SSE 08:39:41 15° SE 08:41:49 10° E visible
29 May 4.4 08:12:23 10° SSE 08:14:17 14° SE 08:16:11 10° E visible
30 May 4.4 07:47:12 10° SSE 07:48:51 13° SE 07:50:30 10° E visible
